COSMOS 2459 [GLONASS-M] 1 36400U 10007A 21111.36008117 -.00000064 00000-0 00000-0 0 9994 2 36400 65.9505 17.6130 0026771 349.7322 311.4353 2.13107987 86682 COSMOS 2461 [GLONASS-M] 1 36401U 10007B 21111.36038211 -.00000064 00000-0 00000-0 0 9993 2 36401 65.9469 17.5777 0021779 6.1828 296.6152 2.13103896 86693 COSMOS 2460 [GLONASS-M] 1 36402U 10007C 21111.42659918 -.00000064 00000-0 00000-0 0 9994 2 36402 65.9335 17.5330 0001855 354.8275 303.0055 2.13106586 86697 SL-12 R/B(2) 1 36403U 10007D 21111.45939682 -.00000064 00000-0 00000-0 0 9997 2 36403 65.9378 17.2689 0017510 191.8264 343.9515 2.13314636 86759 SL-12 R/B(AUX MOTOR) 1 36406U 10007G 21111.40326076 -.00000055 00000-0 -89496-4 0 9993 2 36406 64.5115 178.0022 5691153 24.5195 354.4100 4.22627677103621 SL-12 R/B(AUX MOTOR) 1 36407U 10007H 21111.17316851 .00000713 00000-0 35764-3 0 9995 2 36407 64.7427 143.1442 5827807 359.1340 0.2573 4.24795302172309 SL-12 DEB 1 41695U 10007M 21105.39221756 -.00018684 00000-0 -96830-1 0 9993 2 41695 64.0850 138.7687 5393528 27.7788 352.8813 4.62760416 7579 SL-12 DEB 1 41696U 10007N 21110.40889639 -.00000129 00000-0 -24424-2 0 9998 2 41696 64.2505 213.3851 5687174 51.7178 347.0534 4.06652029 99693 SL-12 DEB 1 41697U 10007P 21106.81000675 -.00008539 00000-0 -99498-1 0 9999 2 41697 64.3203 246.0136 5659265 16.6572 356.1024 4.13767932101087 SL-12 DEB 1 41698U 10007Q 21108.13209956 .00000892 00000-0 13562-2 0 9991 2 41698 64.6658 119.6645 5693307 14.4745 356.7312 4.34859589106105 SL-12 DEB 1 41699U 10007R 21111.38837678 .00000526 00000-0 83205-3 0 9997 2 41699 64.5989 132.1749 5705938 17.4437 356.0998 4.31459887105973 SL-12 DEB 1 41700U 10007S 21111.39344339 .00000024 00000-0 29048-3 0 9996 2 41700 64.5048 219.4255 5755325 21.4749 355.1712 4.10681415100889 SL-12 DEB 1 41701U 10007T 21107.34039751 -.00000987 00000-0 -11103-1 0 9997 2 41701 64.5403 239.5791 5660207 5.6464 358.6563 4.13997047 96391 SL-12 DEB 1 41703U 10007V 21111.13361537 .00002153 00000-0 23575-2 0 9993 2 41703 64.6276 128.3853 5739969 15.9420 356.4846 4.30591312 93711 SL-12 DEB 1 43527U 10007Z 21110.56522378 .00001964 00000-0 14332-2 0 9997 2 43527 64.4899 154.3582 5849688 6.9797 358.6002 4.18577474 44185 SL-12 DEB 1 43528U 10007AA 21108.20829196 .00007804 00000-0 43073-2 0 9997 2 43528 64.4149 153.9314 5853556 9.5176 358.0612 4.19608229 44096 SL-12 DEB 1 43606U 10007AH 21106.05985172 .00001841 00000-0 53775-3 0 9998 2 43606 65.1201 141.1098 5806350 347.2514 2.8351 4.30631207 44512 SL-12 DEB 1 43607U 10007AJ 21100.29678927 .00089789 00000-0 72381-2 0 9996 2 43607 65.2117 54.3061 4935626 330.9550 8.8033 5.77957590 49990 SL-12 DEB 1 43608U 10007AK 21109.36500522 .00000076 00000-0 91187-3 0 9997 2 43608 65.5124 183.5239 5648213 340.6510 4.5706 4.20130583 43077